Regional Weather Roundup
Issued by NWS Newport/Morehead, NC

Current Version | Previous Version | Text Only | Print | Product List | Glossary On
Versions: 1 2 3 4 5 6 7 8 9 10 11 12 13 14 15 16 17 18 19 20 21 22 23 24 25 26 27 28 29 30 31 32 33 34 35 36 37 38 39 40 41 42 43 44 45 46 47 48 49 50
000 ASUS42 KMHX 202325 RWRMHX WEATHER ROUNDUP FOR EASTERN NORTH CAROLINA NATIONAL WEATHER SERVICE NEWPORT/MOREHEAD CITY NC 700 PM EDT WED SEP 20 2017 NOTE: "FAIR" INDICATES FEW OR NO CLOUDS BELOW 12,000 FEET WITH NO SIGNIFICANT WEATHER AND/OR OBSTRUCTIONS TO VISIBILITY NCZ015>017-031-032-045>047-102-103-210000- NORTH COAST CITY SKY/WX TMP DP RH WIND PRES REMARKS EDENTON CLEAR 80 72 77 CALM 29.94S ELIZABETH CITY CLEAR 77 67 71 W3 29.93R KITTY HAWK CLEAR 75 65 70 CALM 29.93R MANTEO CLEAR 77 67 72 CALM 29.94S $$ NCZ045>047-081-094-103-104-210000- CENTRAL COAST CITY SKY/WX TMP DP RH WIND PRES REMARKS FRISCO PTCLDY 79 75 87 SW5 29.95R $$ NCZ095-097-098-100-101-210000- SOUTHERN COAST CITY SKY/WX TMP DP RH WIND PRES REMARKS BEAUFORT CLEAR 79 74 84 SW9 29.95S CEDAR ISLAND NOT AVBL JACKSONVILLE CLEAR 81 74 79 S7 29.94R PINEY ISLAND N/A N/A N/A N/A S6 29.94R WILMINGTON CLEAR 84 68 58 SW6 29.95R $$ NCZ011>013-027>030-043-044-078>080-089-090>093-098-210000- COASTAL PLAIN CITY SKY/WX TMP DP RH WIND PRES REMARKS AHOSKIE N/A 76 72 86 CALM 29.94S CLINTON CLEAR 77 67 70 CALM 29.96R ELIZABETHTOWN NOT AVBL GOLDSBORO PTCLDY 75 73 93 CALM 29.93S GREENVILLE MOCLDY 79 73 83 CALM 29.96S HAVELOCK CLEAR 80 73 79 S8 29.95S KENANSVILLE CLEAR 77 68 73 CALM 29.96R KINSTON PTCLDY 75 72 88 SW3 29.96R NEW BERN CLEAR 80 74 81 CALM 29.95R RICHLANDS PTCLDY 81 72 74 N7 29.96R ROCKY MOUNT CLEAR 81 73 76 S3 29.94S WASHINGTON CLEAR 79 71 76 CALM 29.94S WHITEVILLE CLEAR 81 70 69 CALM 29.95S $$ AMZ130-135-150-152-154-156-158-170-250-252-270-ANZ085-086-088-633-658-670-210000- MARINE OBSERVATIONS STATION/POSITION TIME TEMP WIND PRES WAVE SWELL AIR SEA DIR/SP/G HT/PER HT/PER (UTC) (F) (DEG/KT/KT) (MB) (FT/S) (FT/S) CHESAPEAKE LIGHT NOT AVBL 64 E VA BEACH 2250 72 71 310/ 6/ 6 1013.4 6/ 9 5/ 9 DUCK 2300 79 75 60/ 1/ 2 1013.2 2 E DUCK 2300 75 N/A 6/11 3/11 OREGON INLET 2300 78 76 CALM / 1 1013.8 13E OREGON INLT 2248 74 N/A 6/11 7/11 HATTERAS CG 2300 78 77 200/ 2/ 3 1014.2 DIAMOND BUOY 2250 77 75 240/ 4/ 6 1013.9 4/10 3/10 CAPE LOOKOUT 2300 79 220/ 7/ 9 1014.0 BEAUFORT LAB 2300 79 76 230/ 4/ 6 1013.8 30 SE NEW RVR IN 2308 81 230/ 10/ 14 1014.5 30 SE NEW RVR IN NOT AVBL 27 SE WRIGHTSVLE 2308 80 80 210/ 10/ 14 1014.6 5 SE WRIGHTSVLE 2308 80 79 210/ 12/ 17 1014.3 225 S CAPE HAT 2250 80 80 340/ 2/ 4 1015.7 7/11 7/11 41 SE CHARLESTON 2310 81 82 180/ 8/ 10 1014.8 $$

USA.gov is the U.S. government's official web portal to all federal, state and local government web resources and services.